This is the latest recevied weather packets stored in our database for station/object KE8CZD. If no packets are shown the sender has not sent any weather packets the latest 10 day(s).
| Time | Temp. | Humidity | Pressure | Rain* | Wind** | Luminosity | Snow |
|---|---|---|---|---|---|---|---|
| 1777730804 | 5° C | 48% | 1015.4 hPa | 0 mm | - | - | - |
| 1777730444 | 4.44° C | 50% | 0 hPa | 0 mm | - | - | - |
| 1777730085 | 4.44° C | 51% | 1015.5 hPa | 0 mm | - | - | - |
| 1777729724 | 5° C | 52% | 1015.4 hPa | 0 mm | - | - | - |
| 1777729364 | 5° C | 53% | 1015.5 hPa | 0 mm | - | - | - |
| 1777729004 | 5° C | 53% | 1015.5 hPa | 0 mm | - | - | - |
| 1777728644 | 4.44° C | 54% | 1015.6 hPa | 0 mm | - | - | - |
| 1777728285 | 4.44° C | 58% | 1015.7 hPa | 0 mm | - | - | - |
| 1777727924 | 4.44° C | 60% | 1015.6 hPa | 0 mm | - | - | - |
| 1777727564 | 3.89° C | 61% | 1015.6 hPa | 0 mm | - | - | - |
| 1777726844 | 3.89° C | 62% | 1015.6 hPa | 0 mm | - | - | - |
| 1777726484 | 3.89° C | 63% | 1015.6 hPa | 0 mm | - | - | - |
| 1777726124 | 3.89° C | 64% | 1015.5 hPa | 0 mm | - | - | - |
| 1777725764 | 3.89° C | 66% | 1015.6 hPa | 0 mm | - | - | - |
| 1777725404 | 3.33° C | 68% | 1015.5 hPa | 0 mm | - | - | - |
| 1777725044 | 3.33° C | 70% | 1015.6 hPa | 0 mm | - | - | - |
| 1777724684 | 3.33° C | 73% | 0 hPa | 0 mm | - | - | - |
| 1777724324 | 3.33° C | 75% | 1015.4 hPa | 0 mm | - | - | - |
| 1777723964 | 3.33° C | 78% | 1015.5 hPa | 0 mm | - | - | - |
| 1777723604 | 3.33° C | 82% | 1015.5 hPa | 0 mm | - | - | - |
| 1777723244 | 3.33° C | 85% | 1015.4 hPa | 0 mm | - | - | - |
| 1777722884 | 2.78° C | 91% | 1015.4 hPa | 0 mm | - | - | - |
| 1777722524 | 2.78° C | 92% | 1015.5 hPa | 0 mm | - | - | - |
| 1777722164 | 2.22° C | 90% | 1015.5 hPa | 0 mm | - | - | - |
| 1777721804 | 1.67° C | 90% | 1015.6 hPa | 0 mm | - | - | - |
* Rain latest hour (hover to see other rain measurements)
** Current wind speed in m/s (hover to see current wind gust speed)